sat.trackr.live / text

‹ back to catalog

ONEWEB-0393

NORAD 50473 · 2021-132E

PAYLOAD ACTIVE UNKNOWN

§ Identity

Operator
Country
UK
Launch date
2021-12-27
Launch site
TYMSC
Launch vehicle
Mass (kg)
RCS (m²)

Purposes: comms

External: N2YO · Heavens-Above · Gunter

§ Orbital elements

Epoch: 2026-09-09T19:13:18.350112Z

Period
109.29 min
Inclination
87.9207°
Eccentricity
0.0001892
Mean motion
13.17649498 rev/d
Perigee alt
1,192.3 km
Apogee alt
1,195.1 km
Semi-major
7,571.8 km
B*
-2.1405e-6
RAAN
349.0575°
Arg perigee
107.6470°
Mean anomaly
252.4868°
Rev number
22,925

§ Raw data

ONEWEB-03931 50473U 21132E   26252.80090683  .00000012  00000+0 -21405-5 0  99992 50473  87.9207 349.0575 0001892 107.6470 252.4868 13.17649498229259

JSON: /api/v1/satellites/50473 · /tle

For live sub-satellite position, see the globe view (requires WebGL).

§ Visibility from observer

Set your observer location to see the next 7 days of passes ≥ 10°. The values pass through the URL so the page stays shareable.

No JS? Fill the form by hand. The geolocation button needs JavaScript.